Temp_Advection
nan nan nan nan nan nan nan nan nan nan nan nan nan nan nan nan nan nan nan nan nan nan nan nan nan nan nan
nan 0 0 0 -0 -0 -0 -0 0 0 -0 -0 -0 0 -0 -0 -0 -0 -0 -0 0 -0 -0 -0 -0 -0 nan
nan 1 0 -0 -0 -0 -0 0 0 0 -0 -0 -0 0 0 -0 -0 -0 -0 -0 -0 -0 -0 -0 0 0 nan
nan 0 0 -0 -0 -0 0 0 0 0 -0 -0 0 0 -0 -0 -0 -0 -0 -0 -0 -0 0 0 0 0 nan
nan 0 -0 -0 -0 0 -0 0 0 -0 0 0 0 -0 -0 -0 -0 -0 -0 -0 -0 -0 0 0 1 0 nan
nan -0 -0 -0 -0 -0 0 0 0 0 -0 0 0 -0 -0 -0 -0 -0 -0 -0 -0 -0 -0 0 0 0 nan
nan -0 -0 0 0 0 0 1 0 -0 -0 0 -0 -0 0 0 -0 -0 -0 -0 -0 -0 0 0 0 0 nan
nan -0 -0 0 0 0 0 -0 -0 -0 -0 -0 -0 -0 0 0 0 -0 -0 -0 0 -0 0 0 0 0 nan
nan -0 0 0 0 -0 -0 -0 -0 -0 -0 -0 -0 0 0 0 -0 -0 -0 -0 -0 -0 0 0 0 0 nan
nan 0 -0 -0 0 -0 0 0 -0 -0 -0 -0 0 0 0 -0 -0 -0 0 -0 -0 0 0 0 0 0 nan
nan 0 0 0 0 0 0 -0 -0 -0 0 0 0 0 -0 -0 -0 0 0 0 0 0 0 0 0 0 nan
nan -0 0 0 0 0 0 0 0 0 0 0 0 0 0 0 0 0 0 0 0 0 0 0 0 0 nan
nan 0 0 0 0 0 0 0 0 0 0 0 0 0 0 0 0 0 0 -0 -0 0 0 0 0 0 nan
nan 0 0 0 0 0 0 0 0 -0 0 0 0 0 0 0 0 0 -0 0 0 0 0 0 0 0 nan
nan -0 0 0 0 0 0 -0 -0 0 0 0 0 0 0 0 0 0 0 0 0 0 0 0 0 0 nan
nan 0 0 0 0 0 0 -0 0 0 0 0 0 0 0 0 0 0 0 0 0 0 -0 0 0 0 nan
nan nan nan nan nan nan nan nan nan nan nan nan nan nan nan nan nan nan nan nan nan nan nan nan nan nan nan
Wind_Speed
22 21 19 18 18 13 13 12 13 15 15 15 15 14 19 16 14 13 12 10 10 10 12 13 10 10 12
21 18 20 19 14 14 15 15 16 15 13 13 15 15 20 15 14 13 11 10 7 7 11 10 5 2 7
20 20 18 15 16 16 16 16 16 14 14 16 17 17 15 13 13 11 8 8 5 3 8 4 4 4 8
21 19 17 16 16 16 14 13 12 12 13 14 16 16 12 13 10 9 7 6 5 4 2 7 5 7 7
19 17 17 16 14 13 12 11 10 11 12 14 13 13 11 10 8 7 7 6 6 7 3 7 15 7 5
20 18 14 13 13 12 11 11 10 11 12 9 10 9 8 8 6 5 6 5 7 10 9 5 8 11 4
17 17 14 12 13 13 12 12 12 11 9 7 7 7 7 5 5 3 3 3 3 7 11 9 4 5 8
17 16 14 11 13 13 13 13 12 11 9 8 7 5 5 4 3 2 1 2 1 3 8 10 10 8 6
17 17 15 14 14 14 14 13 14 10 9 8 6 5 4 4 4 2 2 2 1 1 3 7 10 11 10
15 17 16 15 16 14 13 12 13 8 9 9 7 5 4 3 2 2 2 2 1 1 2 2 4 7 10
15 16 15 14 14 13 13 12 10 9 6 9 7 7 5 3 2 1 2 2 3 4 4 4 4 5 6
17 15 14 15 14 13 13 12 12 11 11 10 8 6 5 3 2 2 2 2 3 4 6 6 6 6 7
19 17 15 13 14 14 13 13 13 13 12 11 9 6 5 3 2 2 2 3 4 5 6 7 8 9 9
18 18 17 16 16 15 14 13 14 13 13 13 10 8 6 5 3 2 3 2 3 4 3 5 8 8 9
21 20 18 18 17 16 15 16 15 14 14 14 11 10 8 6 5 4 5 6 7 7 7 8 9 9 10
21 19 19 19 18 18 17 16 16 15 15 15 13 11 11 9 8 8 7 7 8 9 9 8 8 8 9
20 19 19 18 19 19 18 17 17 17 16 16 16 15 14 12 11 9 10 9 9 11 13 14 11 11 11
Wind_Direction
262 270 274 283 297 285 280 288 278 291 289 290 286 300 310 308 300 294 293 287 285 293 307 309 284 271 231
254 254 263 275 275 281 282 285 285 284 288 287 295 307 314 303 299 296 296 287 283 298 327 331 315 268 195
250 257 264 262 269 270 272 277 276 279 278 283 291 295 295 296 299 294 291 285 266 270 343 330 350 176 191
259 262 264 262 263 266 264 262 268 268 272 280 287 287 289 296 302 296 289 273 241 223 23 85 142 141 165
249 247 246 254 258 259 256 259 254 263 269 272 278 278 288 294 297 301 283 260 228 209 186 76 129 176 183
241 241 240 243 244 246 249 252 252 262 264 267 267 276 287 292 296 310 310 279 230 211 211 195 80 118 56
246 243 236 230 235 237 243 242 247 252 262 268 264 275 274 275 280 286 331 315 261 227 221 214 184 122 116
243 240 237 226 228 230 234 244 253 246 249 259 259 264 258 265 284 295 328 338 69 220 226 229 220 202 184
241 240 238 229 233 236 235 237 239 235 240 242 252 244 243 235 242 246 265 283 341 15 207 215 228 233 231
237 235 234 239 237 232 224 225 231 225 224 221 220 224 223 194 188 221 239 250 255 212 199 190 203 214 225
229 222 222 222 225 221 219 220 222 213 216 205 205 199 206 182 163 204 235 235 230 220 212 204 205 201 201
227 223 216 217 218 220 216 211 212 209 212 199 195 194 207 217 213 225 259 264 255 234 220 228 228 227 222
229 224 220 213 213 212 212 208 208 208 207 199 199 206 207 218 237 259 276 276 265 250 240 240 238 234 228
232 228 223 219 217 215 216 215 212 210 204 200 208 213 219 225 234 251 280 266 255 260 240 227 236 236 237
227 226 222 221 219 219 218 219 220 217 215 213 220 222 226 233 248 263 288 288 276 267 256 248 246 242 242
229 227 224 222 221 221 222 225 227 224 223 223 225 230 236 244 254 261 268 280 283 276 271 263 252 251 249
231 229 226 222 223 224 226 227 228 231 231 227 232 237 244 247 252 254 267 274 288 283 271 268 260 254 258
Height
1510 1509 1510 1509 1507 1506 1508 1506 1507 1505 1505 1504 1506 1503 1502 1500 1498 1496 1495 1492 1492 1491 1489 1487 1485 1483 1483
1502 1503 1505 1502 1504 1503 1504 1503 1503 1503 1500 1501 1502 1499 1498 1496 1495 1494 1491 1490 1490 1490 1488 1485 1483 1481 1481
1498 1498 1497 1496 1499 1498 1498 1498 1500 1498 1497 1499 1498 1496 1493 1494 1493 1491 1488 1489 1488 1489 1488 1484 1482 1482 1483
1492 1490 1492 1494 1492 1494 1492 1490 1491 1493 1493 1493 1495 1494 1491 1491 1491 1488 1487 1486 1487 1488 1487 1484 1482 1482 1483
1486 1484 1486 1488 1486 1489 1488 1489 1488 1489 1490 1491 1490 1492 1488 1489 1488 1486 1485 1485 1486 1486 1487 1486 1483 1483 1484
1484 1482 1480 1482 1484 1485 1485 1488 1488 1484 1485 1486 1488 1488 1486 1487 1486 1484 1483 1484 1484 1484 1486 1486 1485 1485 1485
1477 1479 1475 1476 1478 1479 1483 1482 1483 1484 1482 1484 1486 1485 1484 1485 1484 1484 1484 1483 1483 1484 1485 1486 1486 1487 1488
1472 1474 1473 1471 1474 1477 1479 1479 1481 1482 1480 1481 1482 1482 1483 1483 1484 1483 1483 1483 1482 1482 1483 1485 1486 1488 1489
1472 1471 1466 1467 1471 1472 1472 1475 1479 1477 1478 1480 1480 1480 1481 1482 1483 1482 1483 1482 1482 1481 1481 1482 1484 1486 1488
1463 1466 1466 1465 1467 1469 1468 1471 1474 1474 1476 1478 1478 1480 1481 1481 1480 1481 1481 1481 1481 1481 1481 1482 1483 1484 1486
1459 1457 1459 1460 1463 1465 1465 1469 1470 1471 1473 1475 1476 1478 1479 1479 1479 1479 1480 1480 1480 1480 1481 1481 1483 1484 1485
1455 1454 1454 1457 1460 1462 1463 1465 1467 1469 1471 1473 1474 1476 1477 1478 1478 1478 1478 1478 1478 1479 1480 1481 1482 1483 1485
1451 1451 1452 1455 1457 1459 1461 1462 1464 1467 1469 1470 1472 1474 1475 1476 1476 1476 1476 1477 1477 1477 1478 1479 1480 1481 1483
1446 1448 1449 1451 1454 1456 1458 1460 1462 1464 1466 1468 1470 1471 1472 1473 1473 1474 1474 1475 1475 1475 1476 1476 1478 1479 1480
1440 1442 1444 1447 1450 1452 1454 1457 1459 1460 1463 1465 1467 1468 1469 1470 1471 1471 1472 1472 1472 1473 1473 1474 1475 1476 1477
1434 1437 1440 1443 1445 1448 1450 1453 1455 1457 1459 1461 1463 1465 1466 1467 1468 1468 1469 1469 1470 1470 1470 1471 1472 1473 1473
1429 1432 1435 1438 1440 1443 1446 1448 1451 1453 1455 1457 1459 1461 1461 1463 1464 1465 1465 1466 1466 1466 1466 1466 1468 1468 1469